[[{"header":{"parameterUnit":"m.s-1","parameterCategory":1,"la1":30.2991,"la2":30.254,"lo1":-89.0895,"lo2":-89.0444,"dy":0.0017,"dx":0.0017,"nx":28,"ny":28,"refTime":"2025-02-04T03:00:00:Z","depth":0,"parameterNumber":2,"parameterNumberName":"U-component_of_WINDS"},"data":[0,0,0,0,0,0,0,0,0,0,0,0,0,0,0,0,0,0,0,0,0,0,0,0,0,0,0,0,0,0,0,0,0,0,0,0,0,0,0,0,0,0,0,0,0,0,0,0,0,0,0,0,0,0,0,0,0,0,-1.4821,-1.4821,0,-1.4863,-1.4864,-1.4864,-1.4841,-1.4839,-1.4838,-1.4837,-1.4882,-1.4884,-1.4886,0,0,0,0,0,0,0,0,0,0,0,0,0,-1.472,-1.4722,-1.4821,-1.4821,-1.4822,-1.4863,-1.4864,-1.4865,-1.4841,-1.4839,-1.4838,-1.4837,-1.4881,-1.4884,-1.4887,0,0,0,0,0,0,0,0,0,0,0,0,0,-1.4763,-1.4722,-1.482,-1.4815,-1.4815,-1.4863,-1.4864,-1.4865,-1.4841,-1.4839,-1.4837,-1.4836,-1.488,-1.4884,-1.4887,-1.4944,0,0,-1.4897,-1.4899,0,0,0,0,0,0,0,0,-1.4761,-1.4767,-1.4815,-1.4815,-1.4815,-1.4845,-1.4845,-1.4891,-1.4842,-1.4831,-1.4837,-1.4835,-1.4871,-1.4875,-1.4887,-1.4946,-1.4948,-1.4898,-1.49,-1.4901,-1.4902,0,0,0,0,0,0,0,-1.4758,-1.4765,-1.4837,-1.4816,-1.4816,-1.4811,-1.4815,-1.4854,-1.4861,-1.4832,-1.483,-1.4836,-1.4871,-1.4884,-1.4888,-1.4948,-1.4898,-1.4901,-1.4903,-1.4904,-1.5057,-1.5059,0,0,0,0,0,0,-1.4755,-1.4763,-1.4836,-1.4839,-1.4783,-1.4814,-1.4819,-1.4837,-1.486,-1.4862,-1.4837,-1.4834,-1.4879,-1.4884,-1.4889,-1.4958,-1.4901,-1.4905,-1.4906,-1.5055,-1.5058,-1.506,0,0,0,0,0,0,-1.4753,-1.4762,-1.4834,-1.48,-1.4809,-1.4818,-1.4839,-1.4839,-1.4852,-1.4864,-1.4865,-1.4849,-1.4878,-1.4885,-1.4931,-1.4959,-1.4906,-1.4909,-1.5053,-1.5056,-1.5059,-1.5095,0,0,0,0,0,0,-1.475,-1.4761,-1.4782,-1.4801,-1.4811,-1.4874,-1.484,-1.4841,-1.4858,-1.4855,-1.4875,-1.4877,-1.4877,-1.4926,-1.4934,-1.4963,-1.4912,-1.505,-1.5054,-1.5058,-1.5091,-1.5099,-1.5105,0,0,0,0,0,-1.4747,-1.4791,-1.4783,-1.4792,-1.4838,-1.4876,-1.4882,-1.488,-1.486,-1.4882,-1.489,-1.4877,-1.4955,-1.4931,-1.494,-1.497,-1.5048,-1.5053,-1.5057,-1.5088,-1.5097,-1.5105,0,0,0,0,0,0,-1.4775,-1.4793,-1.4785,-1.4837,-1.4855,-1.4872,-1.4899,-1.489,-1.4914,-1.491,-1.4908,-1.4913,-1.4961,-1.497,-1.4943,-1.5027,-1.4999,-1.5005,-1.5019,-1.5028,-1.5034,-1.5031,-1.4915,0,0,0,0,0,-1.4788,-1.4817,-1.4831,-1.4875,-1.4885,-1.4891,-1.4907,-1.4904,-1.4923,-1.4931,-1.4942,-1.4962,-1.4991,-1.501,-1.5037,-1.5093,-1.5097,-1.5118,-1.5125,-1.5131,-1.5137,-1.5168,-1.5177,-1.5075,-1.5075,-1.5074,0,0,-1.4813,-1.4827,-1.4845,-1.4881,-1.4895,-1.4926,-1.4897,-1.4931,-1.4954,-1.4936,-1.498,-1.499,-1.5011,-1.5062,-1.5086,-1.5072,-1.5166,-1.5137,-1.5141,-1.5144,-1.5173,-1.5183,-1.5192,-1.5078,-1.5077,-1.5077,0,0,-1.4875,-1.4889,-1.4927,-1.4942,-1.4963,-1.4967,-1.4976,-1.4995,-1.5,-1.5045,-1.5032,-1.506,-1.511,-1.5126,-1.5141,-1.5211,-1.52,-1.522,-1.5257,-1.5287,-1.5295,-1.5302,-1.5327,-1.5336,-1.5226,-1.5226,-1.5226,0,-1.4905,-1.495,-1.4948,-1.4983,-1.4999,-1.4985,-1.5024,-1.5039,-1.5069,-1.5081,-1.5065,-1.5128,-1.5141,-1.5196,-1.5214,-1.5226,-1.5237,-1.5217,-1.5294,-1.5301,-1.5308,-1.5332,-1.5341,-1.5228,-1.5228,-1.5228,-1.5228,0,-1.4985,-1.5017,-1.5046,-1.5074,-1.5094,-1.5131,-1.5135,-1.5156,-1.5152,-1.5158,-1.5204,-1.522,-1.525,-1.5263,-1.526,-1.5318,-1.5309,-1.5294,-1.5265,-1.532,-1.5342,-1.5351,-1.5232,-1.5231,-1.523,-1.523,0,0,-1.5065,-1.5093,-1.5104,-1.5117,-1.514,-1.5165,-1.5203,-1.5232,-1.525,-1.5272,-1.5303,-1.5346,-1.5332,-1.5349,-1.5348,-1.5374,-1.5429,-1.5356,-1.5356,-1.5369,-1.5495,-1.5506,-1.5517,-1.5422,-1.5424,-1.5426,-1.5494,0,-1.5129,-1.5193,-1.5192,-1.5252,-1.5282,-1.527,-1.5302,-1.532,-1.5327,-1.5354,-1.5362,-1.5392,-1.5372,-1.5382,-1.5408,-1.5417,-1.5455,-1.5412,-1.5452,-1.5453,-1.5446,-1.5529,-1.554,-1.5604,-1.5502,-1.5504,-1.5505,0,-1.5211,-1.5236,-1.5298,-1.5318,-1.533,-1.5359,-1.5387,-1.5413,-1.5434,-1.5437,-1.5457,-1.5451,-1.549,-1.5461,-1.5514,-1.5485,-1.5502,-1.5509,-1.5511,-1.5514,-1.5482,-1.5534,-1.5624,-1.5633,-1.5519,-1.5518,-1.5517,0,-1.5264,-1.5312,-1.5355,-1.5367,-1.5392,-1.5412,-1.5424,-1.5443,-1.5461,-1.5486,-1.5498,-1.5527,-1.5543,-1.5566,-1.5569,-1.5548,-1.5623,-1.5594,-1.5627,-1.5627,-1.5642,-1.5641,-1.5736,-1.5654,-1.5654,-1.5654,-1.5653,0,-1.5335,-1.5373,-1.5379,-1.5406,-1.5449,-1.5449,-1.5492,-1.5502,-1.552,-1.5549,-1.554,-1.5568,-1.557,-1.5599,-1.5602,-1.5645,-1.5653,-1.5657,-1.5657,-1.5657,-1.5657,-1.5667,-1.5663,-1.5656,-1.5656,-1.5655,-1.5655,0,-1.54,-1.5405,-1.5452,-1.5472,-1.5478,-1.5509,-1.5526,-1.5552,-1.5558,-1.5595,-1.5604,-1.5614,-1.5648,-1.5653,-1.5692,-1.5694,-1.5747,-1.5743,-1.574,-1.5739,-1.5771,-1.5768,-1.5876,-1.589,-1.5799,-1.58,-1.5801,0,-1.5444,-1.5474,-1.5497,-1.5515,-1.5528,-1.5558,-1.5577,-1.5578,-1.5599,-1.5626,-1.5649,-1.5681,-1.5707,-1.5761,-1.5772,-1.5803,-1.5799,-1.5835,-1.5803,-1.5803,-1.5799,-1.5797,-1.5801,-1.584,-1.5841,-1.5842,-1.5843,0,-1.5523,-1.5524,-1.5552,-1.558,-1.5603,-1.5626,-1.5647,-1.5663,-1.5668,-1.5691,-1.5725,-1.5745,-1.5786,-1.5818,-1.5849,-1.5861,-1.5853,-1.5853,-1.5862,-1.5862,-1.5859,-1.5861,-1.5756,-1.585,-1.5849,-1.5849,-1.5848,-1.5848,-1.5579,-1.5605,-1.5625,-1.5656,-1.5672,-1.5693,-1.5719,-1.5729,-1.5757,-1.579,-1.5789,-1.5827,-1.5848,-1.5888,-1.5903,-1.5932,-1.5921,-1.5934,-1.5937,-1.5941,-1.5944,-1.5855,-1.5938,-1.5938,-1.5938,-1.5937,-1.5937,0,-1.5657,-1.567,-1.5698,-1.5729,-1.5753,-1.5744,-1.5768,-1.5789,-1.5822,-1.5842,-1.5868,-1.5908,-1.594,-1.5954,-1.5986,-1.6007,-1.6004,-1.6015,-1.6013,-1.6017,-1.5952,-1.5941,-1.6017,-1.6017,-1.6017,-1.6017,-1.6017,-1.6017,-1.57,-1.5744,-1.5748,-1.58,-1.5813,-1.5849,-1.5863,-1.5883,-1.5899,-1.5943,-1.597,-1.5979,-1.5998,-1.6031,-1.606,-1.6063,-1.6075,-1.6088,-1.609,-1.6029,-1.6021,-1.6013,-1.6003,-1.6091,-1.6091,-1.6152,-1.6152,-1.6153]},{"header":{"parameterUnit":"m.s-1","parameterCategory":1,"la1":30.2991,"la2":30.254,"lo1":-89.0895,"lo2":-89.0444,"dy":0.0017,"dx":0.0017,"nx":28,"ny":28,"refTime":"2025-02-04T03:00:00:Z","depth":0,"parameterNumber":3,"parameterNumberName":"V-component_of_WINDS"},"data":[0,0,0,0,0,0,0,0,0,0,0,0,0,0,0,0,0,0,0,0,0,0,0,0,0,0,0,0,0,0,0,0,0,0,0,0,0,0,0,0,0,0,0,0,0,0,0,0,0,0,0,0,0,0,0,0,0,0,2.3035,2.3035,0,2.2998,2.2997,2.2997,2.2978,2.2978,2.2978,2.2978,2.2937,2.2936,2.2935,0,0,0,0,0,0,0,0,0,0,0,0,0,2.3091,2.309,2.3035,2.3035,2.3034,2.2998,2.2997,2.2997,2.2978,2.2978,2.2978,2.2978,2.2938,2.2936,2.2935,0,0,0,0,0,0,0,0,0,0,0,0,0,2.3061,2.3089,2.3035,2.3021,2.3019,2.2998,2.2997,2.2996,2.2978,2.2978,2.2978,2.2978,2.2938,2.2937,2.2935,2.2925,0,0,2.293,2.2929,0,0,0,0,0,0,0,0,2.3063,2.3059,2.3023,2.3021,2.302,2.2992,2.3002,2.2972,2.2978,2.2993,2.2978,2.2978,2.2956,2.2953,2.2945,2.2923,2.2921,2.293,2.2929,2.2928,2.2928,0,0,0,0,0,0,0,2.3065,2.3061,2.302,2.3023,2.302,2.3016,2.3012,2.2996,2.2975,2.2992,2.2991,2.2986,2.2955,2.2947,2.2944,2.2921,2.293,2.2929,2.2928,2.2927,2.2891,2.2891,0,0,0,0,0,0,2.3069,2.3062,2.3021,2.3019,2.3042,2.3015,2.301,2.3001,2.2975,2.2971,2.2986,2.2986,2.295,2.2946,2.2943,2.2931,2.2928,2.2927,2.2926,2.2891,2.2891,2.2891,0,0,0,0,0,0,2.3071,2.3066,2.3023,2.304,2.3035,2.3014,2.3004,2.3,2.2993,2.2971,2.2967,2.2983,2.295,2.2945,2.293,2.2929,2.2926,2.2925,2.2891,2.2891,2.2891,2.2906,0,0,0,0,0,0,2.3072,2.3066,2.3062,2.304,2.3034,2.3011,2.3004,2.3,2.299,2.2989,2.2966,2.2962,2.2949,2.2933,2.2929,2.2927,2.2923,2.2891,2.2891,2.2891,2.2906,2.2907,2.2908,0,0,0,0,0,2.3074,2.3067,2.3062,2.3057,2.3028,2.3011,2.3007,2.2993,2.299,2.2986,2.2973,2.2963,2.293,2.2931,2.2927,2.2924,2.2891,2.2891,2.2891,2.2905,2.2906,2.2908,0,0,0,0,0,0,2.3088,2.3064,2.3058,2.3044,2.303,2.3008,2.3002,2.2994,2.298,2.2979,2.2961,2.2956,2.2944,2.2932,2.2934,2.2915,2.291,2.2909,2.2922,2.2923,2.2924,2.2927,2.2922,0,0,0,0,0,2.309,2.3078,2.3058,2.3047,2.304,2.3023,2.3015,2.3005,2.2989,2.2983,2.2968,2.2953,2.294,2.2931,2.2917,2.2904,2.29,2.29,2.2901,2.2902,2.2902,2.2896,2.2896,2.2891,2.2891,2.2891,0,0,2.3093,2.3078,2.3071,2.305,2.3037,2.3026,2.3018,2.3005,2.2997,2.2981,2.2967,2.2955,2.2937,2.2924,2.2918,2.2915,2.2902,2.2902,2.2903,2.2902,2.2896,2.2896,2.2897,2.2891,2.2891,2.2891,0,0,2.3092,2.308,2.307,2.3059,2.3041,2.303,2.3028,2.3008,2.3,2.2986,2.2974,2.2964,2.294,2.2928,2.2919,2.2917,2.2909,2.2913,2.2918,2.2913,2.2913,2.2913,2.2914,2.2914,2.2913,2.2913,2.2913,0,2.3097,2.308,2.3066,2.3055,2.3046,2.3033,2.3024,2.3013,2.2992,2.2986,2.2983,2.2955,2.2942,2.2927,2.2927,2.2919,2.2917,2.2915,2.2914,2.2914,2.2914,2.2914,2.2914,2.2913,2.2913,2.2913,2.2913,0,2.3088,2.3077,2.3071,2.3052,2.3043,2.3033,2.3018,2.301,2.3002,2.2991,2.2977,2.2961,2.2945,2.2941,2.2932,2.2925,2.2923,2.2918,2.2912,2.2916,2.2916,2.2915,2.2915,2.2914,2.2914,2.2914,0,0,2.3094,2.3069,2.3068,2.306,2.3041,2.3031,2.3021,2.3006,2.3,2.2987,2.2978,2.296,2.2955,2.2945,2.2935,2.293,2.2931,2.2925,2.2925,2.2927,2.2924,2.2929,2.2929,2.2926,2.2926,2.2926,2.2926,0,2.3091,2.3073,2.3061,2.3048,2.3038,2.3026,2.3017,2.3005,2.2995,2.2985,2.2974,2.2962,2.2956,2.295,2.2945,2.2932,2.293,2.2932,2.2918,2.2917,2.2923,2.2928,2.2933,2.2933,2.2925,2.2925,2.2925,0,2.3085,2.3073,2.3059,2.3043,2.3038,2.3031,2.3017,2.3008,2.2994,2.2987,2.2977,2.2968,2.2957,2.2953,2.2939,2.2941,2.2934,2.2928,2.2927,2.2925,2.2921,2.2927,2.2933,2.2934,2.2925,2.2925,2.2925,0,2.3091,2.3072,2.3062,2.3055,2.3036,2.3031,2.3023,2.3009,2.3002,2.299,2.2985,2.2972,2.2964,2.2954,2.2942,2.294,2.2929,2.2924,2.2924,2.2924,2.2921,2.2922,2.2927,2.2917,2.2917,2.2917,2.2917,0,2.309,2.3082,2.3065,2.3058,2.305,2.3037,2.3028,2.3019,2.3007,2.2999,2.2988,2.2981,2.2964,2.2955,2.2945,2.2935,2.2932,2.2926,2.2924,2.2928,2.2928,2.2923,2.2923,2.2917,2.2917,2.2917,2.2917,0,2.3095,2.3083,2.3071,2.3055,2.3051,2.3045,2.3031,2.3025,2.3015,2.3005,2.3002,2.2987,2.2976,2.2963,2.2946,2.294,2.2931,2.2927,2.2936,2.2935,2.2936,2.2936,2.2938,2.2938,2.2928,2.2928,2.2928,0,2.3095,2.3089,2.3072,2.3067,2.3059,2.305,2.3043,2.303,2.3023,2.3008,2.3004,2.2992,2.2982,2.2965,2.2952,2.294,2.2936,2.2938,2.2934,2.2939,2.2937,2.2938,2.2938,2.2939,2.2939,2.2939,2.2939,0,2.3096,2.3091,2.3081,2.307,2.3062,2.3053,2.3043,2.3039,2.3024,2.3017,2.3006,2.2999,2.2984,2.2972,2.2959,2.2951,2.2943,2.2941,2.294,2.2944,2.2949,2.2947,2.2939,2.294,2.294,2.294,2.294,2.294,2.3098,2.3093,2.3082,2.3072,2.3064,2.3055,2.3049,2.3039,2.303,2.3018,2.3011,2.3001,2.2989,2.2971,2.2963,2.2954,2.2951,2.295,2.295,2.295,2.2952,2.2951,2.2952,2.2952,2.2952,2.2952,2.2952,0,2.3099,2.3092,2.3083,2.3071,2.3063,2.3058,2.3047,2.3041,2.3032,2.3022,2.3013,2.3002,2.2991,2.2979,2.2968,2.2964,2.296,2.2961,2.2961,2.296,2.2954,2.2956,2.2965,2.2965,2.2965,2.2965,2.2965,2.2965,2.3099,2.3091,2.3085,2.3072,2.3065,2.3055,2.305,2.3042,2.3034,2.3022,2.3014,2.3006,2.2996,2.2984,2.2975,2.2971,2.2968,2.2971,2.2966,2.2961,2.296,2.2959,2.2961,2.297,2.297,2.2972,2.2972,2.2972]}]]